TIME,DELAY(SENSOR),PRES,T(CTD),SAL,OXYGEN,RAWTEMP,T(OPTODE),TCPHASE,TURBIDITY,TURBIDITY_GAIN,FLUOR,BETA,CDOM,ED411.5,ED443.8,ED489.6,PAR,COMP,TILT,TILTY(TILT),CHECK
1341821645,6468,226.4100036621093800,4.9668002128601070,34.9747009277343750,361.7546081542969000,653.2039794921875000,4.9458918571472170,32.4428901672363300,15,3,48,115,62,2147635300,2147392045,2147287501,2148319661,276,2,-4,34473
1341821707,6467,222.7799987792968800,4.9658999443054200,34.9748001098632800,361.7405090332031000,653.2155761718750000,4.9455151557922360,32.4434700012207000,16,3,50,104,62,2147636795,2147395596,2147284867,2148323350,3410,2,-4,26677
1341821769,6467,219.1199951171875000,4.9667000770568850,34.9743995666503900,361.9335937500000000,653.1912231445312000,4.9463119506835940,32.4369316101074200,15,3,48,109,62,2147636141,2147391867,2147286284,2148322559,3050,2,-4,30680
1341821831,6469,215.4900054931640600,4.9677000045776370,34.9744987487793000,362.0239868164062500,653.1561279296875000,4.9474530220031740,32.4333801269531250,16,3,50,114,63,2147636465,2147392150,2147287492,2148323405,2790,2,-4,6466
1341821893,6468,211.8999938964843800,4.9684000015258790,34.9739990234375000,362.0555114746094000,653.1428222656250000,4.9478869438171390,32.4322700500488300,16,3,49,111,62,2147636904,2147392036,2147288146,2148321654,2562,2,-4,38302
1341821955,6469,208.3500061035156200,4.9685001373291020,34.9739990234375000,362.1398010253906000,653.1334838867188000,4.9481887817382810,32.4293289184570300,16,3,48,111,62,2147633658,2147394253,2147288877,2148318934,2338,2,-4,58712
1341822017,6469,204.8600006103515600,4.9690999984741210,34.9740982055664060,362.2139892578125000,653.1112060546875000,4.9489140510559080,32.4263610839843750,16,3,48,113,62,2147630884,2147393485,2147285631,2148323359,2131,2,-4,60459
1341822079,6468,201.3999938964843800,4.9696002006530760,34.9734992980957000,362.3171081542969000,653.1107788085938000,4.9489269256591800,32.4231910705566400,16,3,48,113,62,2147636420,2147392712,2147287912,2148321421,1937,2,-6,9049
1341822141,6469,197.9600067138672000,4.9696998596191410,34.9738998413085940,362.5267028808594000,653.0930175781250000,4.9495048522949220,32.4162406921386700,16,3,48,105,62,2147633494,2147394495,2147289261,2148318427,1745,2,-6,53168
1341822203,6467,194.5700073242187500,4.9692001342773440,34.9738998413085940,362.7145996093750000,653.1002197265625000,4.9492721557617190,32.4102210998535160,16,3,49,106,62,2147636154,2147394102,2147289348,2148320182,1616,2,-6,565
1341822266,6466,191.1199951171875000,4.9689002037048340,34.9742012023925800,362.8974914550781000,653.1068725585938000,4.9490528106689450,32.4044990539550800,16,3,50,114,62,2147633069,2147393412,2147291231,2148321229,1475,2,-4,43817
1341822328,6468,187.8300018310547000,4.9688000679016110,34.9740982055664060,362.8648986816406000,653.0720825195312000,4.9501838684082030,32.4051094055175800,16,3,48,112,62,2147638559,2147391908,2147291428,2148323163,1255,2,-6,53580
1341822392,6469,184.4499969482422000,4.9713997840881350,34.9734001159668000,362.9909057617187500,653.0421142578125000,4.9511618614196780,32.4005317687988300,15,3,49,112,62,2147635514,2147393960,2147292886,2148320895,1046,2,-4,8365
1341822454,6469,181.2200012207031200,4.9721999168396000,34.9738006591796900,363.2095031738281000,652.9998779296875000,4.9525361061096190,32.3929290771484400,23,3,50,107,62,2147636786,2147392868,2147292191,2148321330,812,2,-6,54073
1341822521,6467,177.8000030517578000,4.9749999046325680,34.9734001159668000,363.3836975097656000,652.9320068359375000,4.9547438621521000,32.3860893249511700,11,3,48,109,62,2147636118,2147396200,2147296178,2148327268,387,2,-4,14869
1341822583,6468,174.7100067138672000,4.9762997627258300,34.9733009338378900,363.4975891113281000,652.8796997070312000,4.9564461708068850,32.3810997009277340,16,3,50,111,62,2147635963,2147395588,2147294523,2148324251,120,2,-6,19064
1341822647,6468,171.5800018310547000,4.9783000946044920,34.9730987548828100,363.5311889648437500,652.8292846679688000,4.9580841064453125,32.3795318603515600,16,3,50,117,62,2147640612,2147394907,2147296936,2148322787,3417,2,-6,33731
1341822709,6465,168.5800018310547000,4.9798998832702640,34.9733009338378900,363.5744934082031000,652.7777709960938000,4.9597630500793460,32.3770408630371100,18,3,50,115,62,2147636708,2147393467,2147296602,2148321581,3073,2,-4,12728
1341822773,6468,165.5299987792968800,4.9819002151489260,34.9734001159668000,363.5021972656250000,652.6945190429688000,4.9624729156494140,32.3780708312988300,10,3,48,110,62,2147637924,2147393801,2147298701,2148326628,2959,2,-6,62174
1341822835,6465,162.5899963378906200,4.9889998435974120,34.9729995727539060,363.3911132812500000,652.5167236328125000,4.9682559967041020,32.3782691955566400,16,3,49,110,62,2147636818,2147395405,2147299812,2148322893,2874,2,-5,65192
1341822899,6467,159.5800018310547000,4.9939999580383300,34.9737014770507800,363.2443847656250000,652.3383789062500000,4.9740538597106930,32.3797683715820300,16,3,49,114,62,2147636973,2147391423,2147306733,2148325855,2703,2,-4,53768
1341822961,6469,156.6600036621093800,5.0093002319335940,34.9743003845214840,363.0234985351562500,651.8402099609375000,4.9902591705322270,32.3778190612793000,16,3,49,119,62,2147636301,2147393567,2147305562,2148328580,2513,2,-4,37742
1341823025,6467,153.6399993896484400,5.0244002342224120,34.9752998352050800,362.7236022949219000,651.4525756835938000,5.0028610229492190,32.3805999755859400,11,3,50,115,62,2147634619,2147396241,2147308900,2148326038,2413,2,-6,61706
1341823087,6467,150.6699981689453000,5.0279998779296875,34.9758987426757800,362.4684143066406000,651.3159179687500000,5.0073089599609375,32.3861503601074200,16,3,50,123,63,2147634902,2147395277,2147309741,2148324873,2267,2,-6,16099
1341823151,6467,147.6000061035156200,5.0315999984741210,34.9762992858886700,362.2744140625000000,651.1939697265625000,5.0112719535827640,32.3900184631347660,16,3,50,178,62,2147635040,2147395583,2147314290,2148326564,2087,2,-4,50848
1341823213,6465,144.5800018310547000,5.0355000495910645,34.9766006469726560,362.2330932617187500,651.0620117187500000,5.0155639648437500,32.3892097473144500,16,3,50,118,62,2147636433,2147398806,2147319890,2148325458,1940,2,-5,28045
1341823277,6466,141.4100036621093800,5.0493998527526855,34.9771995544433600,361.9641113281250000,650.6865234375000000,5.0277709960937500,32.3908500671386700,16,3,50,120,62,2147639282,2147398665,2147328036,2148326240,1712,2,-6,12233
1341823339,6469,138.2899932861328000,5.0560998916625980,34.9782981872558600,361.8487854003906000,650.4429931640625000,5.0356879234313965,32.3902015686035160,16,3,50,119,62,2147635007,2147402426,2147333265,2148324730,1598,2,-6,27760
1341823403,6468,135.0599975585937500,5.0690999031066895,34.9788017272949200,361.4314880371094000,650.0443725585938000,5.0486431121826170,32.3962593078613300,16,3,50,112,64,2147637471,2147401357,2147343455,2148329384,1475,2,-4,55105
1341823465,6467,131.9799957275390600,5.1005997657775880,34.9818000793457000,360.9552917480469000,649.0612182617188000,5.0805950164794920,32.3941001892089840,16,3,50,118,62,2147640703,2147404790,2147358385,2148329645,1209,2,-4,57034
1341823529,6468,128.8099975585937500,5.1170001029968260,34.9826011657714840,360.5976867675781000,648.6317138671875000,5.0945510864257810,32.3979415893554700,16,3,50,116,62,2147636177,2147408525,2147376658,2148336493,1015,2,-6,49579
1341823591,6468,125.8000030517578100,5.1201000213623050,34.9838981628418000,360.5562133789062500,648.4636230468750000,5.1000118255615230,32.3961296081543000,12,3,50,119,61,2147637955,2147409837,2147392300,2148338395,802,2,-6,3963
1341823655,6469,122.7500000000000000,5.1442999839782715,34.9855003356933600,360.3229064941406000,647.7885742187500000,5.1219348907470700,32.3916206359863300,17,3,50,134,62,2147638367,2147417275,2147412895,2148339372,532,2,-6,15115
1341823717,6469,119.8499984741211000,5.1561999320983890,34.9865989685058600,360.1716918945312500,647.4232177734375000,5.1338038444519040,32.3897895812988300,16,3,51,123,62,2147637960,2147420393,2147430074,2148340346,128,2,-6,33107
1341823781,6469,116.9400024414062500,5.1610999107360840,34.9873008728027340,360.2048950195312500,647.2362060546875000,5.1398749351501465,32.3853797912597660,16,3,52,116,63,2147637311,2147421088,2147442550,2148341512,3316,2,-6,52812
1341823843,6467,114.1999969482421900,5.1675000190734860,34.9887008666992200,360.1315917968750000,647.0151977539062000,5.1470527648925780,32.3840599060058600,19,3,53,119,62,2147640498,2147426065,2147447615,2148342979,3045,2,-5,27913
1341823907,6469,111.4599990844726600,5.1875000000000000,34.9897003173828100,359.7822875976562500,646.4276733398438000,5.1661281585693360,32.3847694396972660,16,3,56,145,62,2147637078,2147423766,2147455848,2148346445,3113,2,-6,28172
1341823969,6468,108.9400024414062500,5.1968998908996580,34.9902992248535160,359.4540100097656000,646.0770874023438000,5.1775069236755370,32.3886909484863300,16,3,56,122,62,2147638477,2147426861,2147463446,2148345549,3061,2,-6,44901
1341824033,6467,106.4000015258789000,5.2023000717163090,34.9903984069824200,359.4281005859375000,645.9515991210938000,5.1815810203552250,32.3873481750488300,29,3,57,124,63,2147641754,2147428936,2147472699,2148347880,2842,2,-5,606
1341824095,6469,104.0100021362304700,5.2042999267578125,34.9911003112793000,359.3569030761719000,645.8795776367188000,5.1839199066162110,32.3885002136230500,19,3,58,145,62,2147639789,2147430860,2147482175,2148348872,2731,2,-5,6096
1341824186,6466,99.8499984741211000,5.2252998352050780,34.9922981262207000,359.1054077148437500,645.2852783203125000,5.2032051086425780,32.3860282897949200,16,3,62,132,62,2147639812,2147436909,2147500795,2148353659,2457,2,-6,28428
1341824248,6468,96.1900024414062500,5.2428998947143555,34.9943008422851560,358.8363952636719000,644.6862792968750000,5.2226428985595700,32.3839492797851560,16,3,64,132,62,2147638916,2147441192,2147518907,2148357357,2185,2,-6,15842
1341824312,6468,92.3199996948242200,5.2513999938964840,34.9948005676269500,358.7508850097656000,644.3358764648438000,5.2340111732482910,32.3804092407226560,16,3,67,127,62,2147644456,2147450591,2147547099,2148363304,1885,2,-6,44405
1341824374,6468,88.5400009155273400,5.2698998451232910,34.9952011108398440,358.6893005371094000,643.8900756835938000,5.2484698295593260,32.3743705749511700,12,3,69,133,62,2147650504,2147458047,2147587190,2148369101,1698,2,-5,58751
1341824461,6467,83.8300018310546900,5.3111000061035160,34.9967002868652340,358.4751892089844000,642.7120971679688000,5.2866759300231930,32.3603515625000000,18,3,77,151,63,2147645846,2147470870,2147633686,2148378783,1639,2,-6,44755
1341824523,6469,81.1999969482421900,5.3133997917175290,34.9964981079101560,358.5038146972656000,642.5255126953125000,5.2927269935607910,32.3562393188476560,16,3,75,141,62,2147650669,2147478120,2147659446,2148384456,1414,2,-4,37563
1341824587,6468,78.4300003051757800,5.3158998489379880,34.9972000122070300,358.5950012207031000,642.4185180664062000,5.2961959838867190,32.3513908386230500,14,3,77,135,62,2147653316,2147487139,2147695139,2148390637,1295,2,-6,20492
1341824649,6468,75.5899963378906200,5.3336000442504880,34.9962997436523440,358.2992858886719000,641.8598022460938000,5.3143081665039060,32.3510093688964840,16,3,81,145,62,2147654673,2147498294,2147739661,2148402724,1155,2,-4,35726
1341824713,6468,72.4899978637695300,5.3394999504089355,34.9973983764648440,358.5989074707031000,641.6685791015625000,5.3205032348632810,32.3381118774414060,16,3,82,133,62,2147661522,2147523976,2147830161,2148421553,623,2,-6,41580
1341824775,6466,69.3300018310546900,5.3564000129699710,34.9963989257812500,358.5513000488281000,641.2355957031250000,5.3345389366149900,32.3319282531738300,16,3,90,147,62,2147674522,2147560680,2147951282,2148444045,3399,2,-6,34721
1341824839,6467,65.9599990844726600,5.3840999603271480,34.9958000183105500,358.4750061035156000,640.4168701171875000,5.3610668182373050,32.3195991516113300,15,3,93,146,62,2147684707,2147609622,2148104264,2148480543,3416,2,-6,14024
1341824901,6469,62.6399993896484400,5.3983998298645020,34.9948005676269500,358.4213867187500000,639.8955078125000000,5.3779578208923340,32.3123512268066400,20,3,91,183,62,2147712003,2147680155,2148314842,2148526139,3216,2,-6,37893
1341824965,6470,59.1300010681152340,5.4128999710083010,34.9944000244140600,358.4621887207031000,639.4545288085938000,5.3922419548034670,32.3030891418457000,14,3,111,189,62,2147741357,2147780090,2148598349,2148596200,2983,2,-6,11392
1341825027,6469,55.6699981689453100,5.4244999885559080,34.9950981140136700,358.6072082519531000,639.1188964843750000,5.4031138420104980,32.2923011779785160,16,3,116,151,62,2147785805,2147900521,2148926413,2148677407,2960,2,-6,37940
1341825091,6470,52.1800003051757800,5.4623999595642090,34.9976997375488300,358.5281066894531000,638.0250244140625000,5.4385337829589840,32.2755584716796900,15,3,120,150,62,2147849421,2148067204,2149373105,2148796136,2590,2,-4,45144
1341825153,6469,49.0000000000000000,5.4843997955322270,34.9977989196777340,358.8197021484375000,637.3961181640625000,5.4588928222656250,32.2549705505371100,22,3,114,151,62,2147923300,2148238331,2149826906,2148918637,2063,2,-5,57343
1341825217,6470,46.0600013732910160,5.6100001335144040,34.9947013854980500,358.6051940917969000,634.9871826171875000,5.5368351936340330,32.2196884155273440,16,3,122,152,62,2147996735,2148401773,2150228195,2149036204,1914,2,-6,47456
1341825279,6470,43.6500015258789060,5.6414999961853030,34.9972991943359400,359.8706970214844000,632.6580810546875000,5.6121330261230470,32.1382217407226560,15,3,128,180,62,2148080278,2148539171,2150546756,2149144369,2016,2,-6,24491
1341825366,6469,39.9900016784668000,5.6824002265930180,34.9982986450195300,361.6354064941406000,631.0983276367188000,5.6625328063964840,32.0543403625488300,18,3,140,166,62,2148291423,2148900360,2151386198,2149424589,1756,2,-5,953
1341825428,6468,36.3899993896484400,5.7493000030517580,34.9968986511230500,362.9201965332031000,629.2515258789062000,5.7221717834472660,31.9815597534179700,21,3,152,176,62,2148558600,2149341009,2152354747,2149763409,1450,2,-5,61255
1341825492,6470,32.4500007629394500,5.7740998268127440,34.9975013732910160,364.3073120117187500,627.7631835937500000,5.7702059745788570,31.9118900299072270,20,3,191,215,62,2149109183,2150207729,2154134225,2150404904,858,2,-6,49869
1341825554,6471,28.4799995422363280,6.1469001770019530,34.9877014160156250,371.1955871582031000,616.1948242187500000,6.1428170204162600,31.4983596801757800,83,3,480,570,64,2150351145,2152102353,2157668264,2151626710,815,2,-6,9183
1341825641,6469,24.3700008392334000,6.5652999877929690,34.9725990295410160,385.8821105957031000,607.7526245117188000,6.4138908386230470,30.9155502319335940,101,3,516,745,64,2152784077,2155502513,2163233644,2153628571,3066,2,-6,28749
1341825703,6469,22.6100006103515620,6.7101998329162600,34.9814987182617200,392.0219116210937500,599.9918212890625000,6.6624741554260250,30.6086292266845700,121,3,503,945,62,2154263441,2157428223,2166033000,2154703944,2564,2,-6,40054
1341825790,6471,19.7000007629394530,6.8088002204895020,34.9851989746093750,400.3663940429687500,596.2529296875000000,6.7820219993591310,30.3111495971679700,131,3,445,1014,62,2160090783,2164864585,2176847981,2158941434,2417,2,-6,39749
1341825852,6472,16.5599994659423830,7.1395998001098630,34.9808006286621100,404.3373107910156000,586.3958740234375000,7.0965771675109860,30.0410404205322270,136,3,375,1044,64,2168540086,2174710687,2189458806,2164249018,2160,2,-5,45388
1341825916,6470,13.6000003814697270,7.3976998329162600,34.9836997985839840,407.4938964843750000,577.6663208007812000,7.3744029998779300,29.8146305084228500,134,3,274,1033,64,2182567706,2189712991,2206451588,2171974508,2052,4,-6,38685
1341825978,6469,11.1599998474121100,9.0371999740600590,34.9588012695312500,399.2965087890625000,532.9896240234375000,8.7859344482421880,29.3452091217041000,121,3,242,873,60,2194936132,2202389179,2219704259,2178737576,1860,0,-4,37254
1341826058,6471,9.6199998855590820,9.8872003555297850,34.9854011535644500,388.0097045898437500,499.3326110839844000,9.8388547897338870,29.1569690704345700,101,3,216,706,58,2203944493,2211897777,2230454971,2184500031,1052,1,-5,11585
1341826132,6469,8.3699998855590820,10.5471000671386720,34.9892005920410160,377.3201904296875000,478.0624084472656000,10.5001401901245120,29.1523990631103500,91,3,205,676,62,2219258518,2229415958,2251742627,2195561247,1200,0,-6,10802
1341826232,6469,6.1599998474121090,10.8530998229980470,34.9844017028808600,367.8594055175781000,466.6689147949219000,10.8531398773193360,29.2657203674316400,89,3,140,665,58,2238142600,2248152808,2269810161,2209790870,779,6,-3,23244
1341826291,6471,4.0000000000000000,10.9422998428344730,34.9803009033203100,364.9142150878906000,463.9555969238281000,10.9370899200439450,29.3146305084228500,86,3,125,583,56,2265102774,2276843670,2299770929,2235150706,1372,-8,-5,21645
1341826357,6470,0.1000000014901161,0.0000000000000000,0.0000000000000000,363.8293151855469000,462.7869873046875000,10.9732303619384770,29.3304405212402340,85,3,110,610,56,2279712045,2290069197,2310632278,2255612594,366,-6,-2,57709
1341826393,6469,0.7900000214576721,0.0000000000000000,0.0000000000000000,363.1005859375000000,460.1026000976562500,11.0562200546264650,29.3139495849609380,88,3,103,563,55,2316105772,2335616195,2344588882,2314627606,237,2,3,45562
